Location: Linz
(48.3300°N, 14.3000°E)
Time: 09:50:54
(UTC+01:00)

YUBILEINY - Pass Details

Date: 25 February 2019
Orbit: 1479 x 1507 km, 82.5° (Epoch: 26 March)

Event Time Altitude Azimuth Distance (km) Brightness Sun altitude
Rises 03:02:36 0° 150° (SSE) 4,588 ? -37.6°
Reaches altitude 10° 03:05:49 10° 141° (SE) 3,613 ? -37.2°
Maximum altitude 03:13:10 33° 82° (E) 2,310 ? -36.1°
Drops below altitude 10° 03:20:34 10° 24° (NNE) 3,639 ? -35.1°
Sets 03:23:48 0° 15° (NNE) 4,627 ? -34.6°
